Location: ????????
(55.6333°N, 37.7000°E)
Time: 05:56:25
(UTC+00:00)

CZ-2C R/B - Pass Details

Date: 19 May 2025
Orbit: 782 x 867 km, 98.4° (Epoch: 15 June)

Event Time Altitude Azimuth Distance (km) Brightness Sun altitude
Exits shadow 22:36:30 16° 176° (S) 1,944 4.0 -12.9°
Maximum altitude 22:40:36 67° 257° (WSW) 852 2.6 -12.7°
Drops below altitude 10° 22:45:46 10° 340° (NNW) 2,354 5.8 -12.5°
Sets 22:48:07 0° 343° (NNW) 3,289 6.7 -12.4°
